Regional Weather Roundup
Issued by NWS Charleston, SC

Current Version | Previous Version | Graphics & Text | Print | Product List | Glossary On
Versions: 1 2 3 4 5 6 7 8 9 10 11 12 13 14 15 16 17 18 19 20 21 22 23 24 25 26 27 28 29 30 31 32 33 34 35 36 37 38 39 40 41 42 43 44 45 46 47 48 49 50
000
ASUS42 KCHS 261727
RWRCHS

REGIONAL WEATHER ROUNDUP
NATIONAL WEATHER SERVICE CHARLESTON SC
100 PM EDT WED APR 26 2017

NOTE: "FAIR" INDICATES FEW OR NO CLOUDS BELOW 12,000 FEET WITH NO
SIGNIFICANT WEATHER AND/OR OBSTRUCTIONS TO VISIBILITY.

NOT ALL STATIONS ARE QUALITY CONTROLLED. USE DATA WITH CAUTION...
ESPECIALLY DEWPOINT OBSERVATIONS.

SCZ027-030-031-034>040-042>050-261800-
...SOUTHEAST SOUTH CAROLINA...

CITY           SKY/WX    TMP DP  RH WIND       PRES   REMARKS
N CHARLESTON   MOSUNNY   81  57  43 W6        29.86F
WATERFRONT PRK   N/A     80  61  52 SW8       29.85S
JOHNS ISLAND   FAIR      81  68  65 S14       29.87F
PINOPOLIS        N/A     79  64  61 CALM      29.80F
MONCKS CORNER  PTSUNNY   81  55  41 SW7       29.85F
SUMMERVILLE    FAIR      82  57  42 S5        29.86F
BEAUFORT MCAS  MOSUNNY   82  61  48 S6        29.86F
BEAUFORT ARPT  FAIR      81  63  54 SW6       29.86F
HILTON HEAD IS SUNNY     79  64  61 S9        29.88F
WALTERBORO     PTSUNNY   81  59  47 S6        29.86F
ALLENDALE      FAIR      81  59  47 VRB7      29.83F

...SOUTHERN MIDLANDS AND PEE DEE...

CITY           SKY/WX    TMP DP  RH WIND       PRES   REMARKS
GEORGETOWN     PTSUNNY   79  68  69 E9        29.86F
KINGSTREE      FAIR      81  59  47 SW9       29.84F
ORANGEBURG     MOSUNNY   80  58  46 SW10      29.85F
BARNWELL       FAIR      82  61  47 VRB5G16   29.84F
AIKEN          FAIR      79  55  44 S7        29.87F
MANNING        PTSUNNY   79  59  50 SW9       29.84F
COLUMBIA       MOSUNNY   83  57  41 SW12      29.82F
SUMTER         MOSUNNY   82  59  45 W12       29.82F
FLORENCE       MOSUNNY   80  62  54 SW8       29.84F
MYRTLE BEACH   MOSUNNY   73  63  68 S14       29.87F
N MYRTLE BEACH SUNNY     73  63  70 S8        29.87F

$$

GAZ063-065-086>088-099>101-113>116-118-119-134>141-150-261800-
...SOUTHEAST GEORGIA...

CITY           SKY/WX    TMP DP  RH WIND       PRES   REMARKS
SAVANNAH ARPT  MOSUNNY   84  57  39 VRB6      29.86F
HUNTER AAF     SUNNY     82  63  52 S5        29.85F
FORT STEWART   PTSUNNY   80  58  46 CALM      29.84F
STATESBORO     PTSUNNY   83  57  40 S12       29.84F
SYLVANIA       PTSUNNY  N/A N/A N/A S6        29.85F
CLAXTON        FAIR      81  62  51 SE5       29.85F

...CSRA...CENTRAL AND FAR SOUTHEAST GEORGIA...

CITY           SKY/WX    TMP DP  RH WIND       PRES   REMARKS
THOMSON        SUNNY     79  57  47 W7        29.88F
AUGUSTA-BUSH   SUNNY     83  58  42 VRB5      29.82F
AUGUSTA-DANIEL MOSUNNY   80  54  40 VRB3      29.84F
SWAINSBORO     FAIR      79  57  47 SW8       29.85F
VIDALIA        MOSUNNY   82  57  42 S5        29.85F
EASTMAN        FAIR      81  44  27 S8        29.87F
HAZLEHURST     PTSUNNY   81  61  50 SW5       29.85F
ALMA           PTSUNNY   81  59  47 S9        29.87F
WAYCROSS       PTSUNNY   84  62  48 SW10      29.86F
JESUP          FAIR      82  54  36 SE6       29.86F
BAXLEY         FAIR      81  63  54 SE6       29.85F
BRUNSWICK      MOSUNNY   81  61  50 CALM      29.88F
SAINT SIMONS   SUNNY     77  60  55 SE8       29.88F

$$

SCZ027-028-034-036>038-045-046-048>050-GAZ119-141-261800-
...LAKE AND SUPPLEMENTAL COASTAL OBSERVATIONS...

STATION/POSITION TIME  TEMP    WIND        PRES    WAVE   SWELL
                       AIR SEA DIR/SP/G            HT/PER HT/PER/DIR
                 (UTC) (F)     (DEG/KT/KT) (MB)    (FT/S) (FT/S/D)
WINYAH BAY       1630   71      90/  7     1011.0F
LAKE MURRAY      1720   77     240/  3/  7 1009.5F
ACE BASIN NERRS  1645   81     190/  1     1012.0S
FORT PULASKI     1700   76 74  180/  5/  7 1011.9
SAPELO ISLAND    1630   77        CALM     1012.0S

$$

ANZ835-935-AMZ111-154-330-350-352-354-370-450-454-472-261800-
...C-MAN AND BUOY OBSERVATIONS...

STATION/POSITION TIME  TEMP    WIND        PRES    WAVE   SWELL
                       AIR SEA DIR/SP/G            HT/PER HT/PER/DIR
                 (UTC) (F)     (DEG/KT/KT) (MB)    (FT/S) (FT/S/D)
BUOY 41004       1700   72 73  240/ 14/ 17 1011.9
BUOY 41008       1650   72 73   CALM  /  2 1012.1F   2/10   2/100/10
FOLLY BEACH CMAN 1700   73     200/ 14/ 16 1012.3F
CAPERS NEARSHORE 1708   76 73  210/ 14/ 19 1011.4F
FRIPP NEARSHORE  1708   71 74  220/  8/ 12 1011.7F


STATION/POSITION TIME  TEMP    WIND        PRES    WAVE   SWELL
                       AIR SEA DIR/SP/G            HT/PER HT/PER/DIR
                 (UTC) (F)     (DEG/KT/KT) (MB)    (FT/S) (FT/S/D)
5E ST. MARYS GA  1700      75                N/A     2/11   2/ 90/11
FRYING PAN BUOY  1710   71 74   CALM  /  2 1011.9
BUOY 41025       1650   69 76  280/ 12/ 14 1010.5S   6/ 9   5/150/ 9
CAPE LOOKOUT NC  1700   68     240/  9/ 12 1010.5F
BUOY 41002       1650   74 75  230/ 16/ 19 1012.9R   8/ 9   5/120/ 9
BUOY 41010       1710   76 78  220/ 10/ 14 1012.9
ST AUGUSTINE FL  1700   75 74  190/  5/  6 1013.1F


$$




USA.gov is the U.S. government's official web portal to all federal, state and local government web resources and services.